Time,TemperatureF,DewpointF,PressureIn,WindDirection,WindDirectionDegrees,WindSpeedMPH,WindSpeedGustMPH,Humidity,HourlyPrecipIn,Conditions,Clouds,dailyrainin,SoftwareType,DateUTC
2013-09-11 00:10:00,63.9,63.3,30.06,West,270,0.0,-999.0,98,-99.99,,,0.00,Acu-Link.com,2013-09-11 04:10:00,
2013-09-11 00:25:00,63.7,63.1,30.06,ENE,67,0.0,-999.0,98,-99.99,,,0.00,Acu-Link.com,2013-09-11 04:25:00,
2013-09-11 00:40:00,63.3,62.7,30.05,ENE,67,0.0,-999.0,98,-99.99,,,0.00,Acu-Link.com,2013-09-11 04:40:00,
2013-09-11 00:56:00,63.5,62.9,30.05,ENE,67,0.0,-999.0,98,-99.99,,,0.00,Acu-Link.com,2013-09-11 04:56:00,
2013-09-11 01:11:00,63.1,62.5,30.05,East,90,0.0,-999.0,98,-99.99,,,0.00,Acu-Link.com,2013-09-11 05:11:00,
2013-09-11 01:26:00,62.8,62.2,30.05,SSW,202,0.0,-999.0,98,-99.99,,,0.00,Acu-Link.com,2013-09-11 05:26:00,
2013-09-11 01:41:00,62.2,61.6,30.05,SW,225,0.0,-999.0,98,-99.99,,,0.00,Acu-Link.com,2013-09-11 05:41:00,
2013-09-11 01:56:00,62.1,61.5,30.04,SW,225,0.0,-999.0,98,-99.99,,,0.00,Acu-Link.com,2013-09-11 05:56:00,
2013-09-11 02:12:00,61.9,61.3,30.04,SW,225,0.0,-999.0,98,-99.99,,,0.00,Acu-Link.com,2013-09-11 06:12:00,
2013-09-11 02:27:00,61.5,60.9,30.04,SW,225,0.0,-999.0,98,-99.99,,,0.00,Acu-Link.com,2013-09-11 06:27:00,
2013-09-11 02:42:00,61.5,60.9,30.03,SSE,157,0.0,-999.0,98,-99.99,,,0.00,Acu-Link.com,2013-09-11 06:42:00,
2013-09-11 02:57:00,61.5,60.9,30.03,East,90,0.0,-999.0,98,-99.99,,,0.00,Acu-Link.com,2013-09-11 06:57:00,
2013-09-11 03:12:00,61.5,60.9,30.03,ENE,67,0.0,-999.0,98,-99.99,,,0.00,Acu-Link.com,2013-09-11 07:12:00,
2013-09-11 03:28:00,61.5,60.9,30.02,SSE,157,0.0,-999.0,98,-99.99,,,0.00,Acu-Link.com,2013-09-11 07:28:00,
2013-09-11 03:43:00,61.2,60.6,30.02,ESE,112,0.0,-999.0,98,-99.99,,,0.00,Acu-Link.com,2013-09-11 07:43:00,
2013-09-11 03:58:00,61.0,60.4,30.03,ESE,112,0.0,-999.0,98,-99.99,,,0.00,Acu-Link.com,2013-09-11 07:58:00,
2013-09-11 04:14:00,61.0,60.4,30.02,ESE,112,0.0,-999.0,98,-99.99,,,0.00,Acu-Link.com,2013-09-11 08:14:00,
2013-09-11 04:29:00,61.2,60.6,30.02,ENE,67,0.0,-999.0,98,-99.99,,,0.00,Acu-Link.com,2013-09-11 08:29:00,
2013-09-11 04:44:00,61.3,60.7,30.02,SSE,157,0.0,-999.0,98,-99.99,,,0.00,Acu-Link.com,2013-09-11 08:44:00,
2013-09-11 05:00:00,61.2,60.6,30.02,ENE,67,0.0,-999.0,98,-99.99,,,0.00,Acu-Link.com,2013-09-11 09:00:00,
2013-09-11 05:15:00,60.8,60.2,30.03,ENE,67,0.0,-999.0,98,-99.99,,,0.00,Acu-Link.com,2013-09-11 09:15:00,
2013-09-11 05:30:00,60.4,59.8,30.03,ENE,67,0.0,-999.0,98,-99.99,,,0.00,Acu-Link.com,2013-09-11 09:30:00,
2013-09-11 05:45:00,60.4,59.8,30.04,ENE,67,0.0,-999.0,98,-99.99,,,0.00,Acu-Link.com,2013-09-11 09:45:00,
2013-09-11 06:00:00,60.4,59.8,30.04,ESE,112,0.0,-999.0,98,-99.99,,,0.00,Acu-Link.com,2013-09-11 10:00:00,
2013-09-11 06:15:00,60.3,59.7,30.04,ESE,112,0.0,-999.0,98,-99.99,,,0.00,Acu-Link.com,2013-09-11 10:15:00,
2013-09-11 06:31:00,60.6,60.0,30.04,NE,45,0.0,-999.0,98,-99.99,,,0.00,Acu-Link.com,2013-09-11 10:31:00,
2013-09-11 06:46:00,60.6,60.0,30.04,NE,45,0.0,-999.0,98,-99.99,,,0.00,Acu-Link.com,2013-09-11 10:46:00,
2013-09-11 07:01:00,60.8,60.2,30.04,ENE,67,0.0,-999.0,98,-99.99,,,0.00,Acu-Link.com,2013-09-11 11:01:00,
2013-09-11 07:16:00,61.2,60.6,30.05,NE,45,0.0,-999.0,98,-99.99,,,0.00,Acu-Link.com,2013-09-11 11:16:00,
2013-09-11 07:31:00,61.2,60.6,30.05,NNW,337,0.0,-999.0,98,-99.99,,,0.00,Acu-Link.com,2013-09-11 11:31:00,
2013-09-11 07:47:00,61.5,60.9,30.06,East,90,0.0,-999.0,98,-99.99,,,0.00,Acu-Link.com,2013-09-11 11:47:00,
2013-09-11 08:02:00,62.1,61.5,30.06,NE,45,0.0,-999.0,98,-99.99,,,0.00,Acu-Link.com,2013-09-11 12:02:00,
2013-09-11 08:17:00,62.6,62.0,30.06,East,90,0.0,-999.0,98,-99.99,,,0.00,Acu-Link.com,2013-09-11 12:17:00,
2013-09-11 08:32:00,63.0,62.4,30.07,NE,45,0.0,-999.0,98,-99.99,,,0.00,Acu-Link.com,2013-09-11 12:32:00,
2013-09-11 08:47:00,63.3,62.7,30.07,ESE,112,0.0,-999.0,98,-99.99,,,0.00,Acu-Link.com,2013-09-11 12:47:00,
2013-09-11 09:03:00,64.2,63.6,30.07,ESE,112,0.0,-999.0,98,-99.99,,,0.00,Acu-Link.com,2013-09-11 13:03:00,
2013-09-11 09:18:00,67.1,66.5,30.07,South,180,0.0,-999.0,98,-99.99,,,0.00,Acu-Link.com,2013-09-11 13:18:00,
2013-09-11 09:33:00,68.2,67.6,30.07,South,180,0.0,-999.0,98,-99.99,,,0.00,Acu-Link.com,2013-09-11 13:33:00,
2013-09-11 09:49:00,69.8,69.2,30.06,NNE,22,0.0,-999.0,98,-99.99,,,0.00,Acu-Link.com,2013-09-11 13:49:00,
2013-09-11 10:04:00,70.5,69.9,30.06,SSE,157,3.2,-999.0,98,-99.99,,,0.00,Acu-Link.com,2013-09-11 14:04:00,
2013-09-11 10:19:00,70.2,69.6,30.06,NE,45,2.2,-999.0,98,-99.99,,,0.00,Acu-Link.com,2013-09-11 14:19:00,
2013-09-11 10:34:00,71.8,71.2,30.06,ESE,112,1.7,-999.0,98,-99.99,,,0.00,Acu-Link.com,2013-09-11 14:34:00,
2013-09-11 10:49:00,72.1,71.5,30.06,East,90,2.2,-999.0,98,-99.99,,,0.00,Acu-Link.com,2013-09-11 14:49:00,
2013-09-11 11:05:00,74.3,73.7,30.06,WSW,247,0.0,-999.0,98,-99.99,,,0.00,Acu-Link.com,2013-09-11 15:05:00,
2013-09-11 11:20:00,74.1,73.5,30.05,SSE,157,1.1,-999.0,98,-99.99,,,0.00,Acu-Link.com,2013-09-11 15:20:00,
2013-09-11 11:35:00,77.9,77.3,30.05,NNW,337,0.0,-999.0,98,-99.99,,,0.00,Acu-Link.com,2013-09-11 15:35:00,
2013-09-11 11:50:00,80.8,80.2,30.05,ESE,112,1.1,-999.0,98,-99.99,,,0.00,Acu-Link.com,2013-09-11 15:50:00,
2013-09-11 12:05:00,82.2,81.6,30.04,SE,135,1.7,-999.0,98,-99.99,,,0.00,Acu-Link.com,2013-09-11 16:05:00,
2013-09-11 12:21:00,83.7,83.1,30.03,NW,315,2.7,-999.0,98,-99.99,,,0.00,Acu-Link.com,2013-09-11 16:21:00,
2013-09-11 12:36:00,84.4,83.8,30.02,East,90,2.2,-999.0,98,-99.99,,,0.00,Acu-Link.com,2013-09-11 16:36:00,
2013-09-11 12:51:00,85.3,84.7,30.02,ENE,67,2.2,-999.0,98,-99.99,,,0.00,Acu-Link.com,2013-09-11 16:51:00,
2013-09-11 13:06:00,87.8,87.2,30.02,ESE,112,1.7,-999.0,98,-99.99,,,0.00,Acu-Link.com,2013-09-11 17:06:00,
2013-09-11 13:21:00,86.9,85.9,30.01,ESE,112,1.7,-999.0,97,-99.99,,,0.00,Acu-Link.com,2013-09-11 17:21:00,
2013-09-11 13:37:00,81.1,80.5,30.01,East,90,2.2,-999.0,98,-99.99,,,0.01,Acu-Link.com,2013-09-11 17:37:00,
2013-09-11 13:52:00,72.7,72.1,30.02,SSW,202,1.1,-999.0,98,-99.99,,,0.23,Acu-Link.com,2013-09-11 17:52:00,
2013-09-11 14:07:00,73.0,72.4,30.00,SE,135,0.0,-999.0,98,-99.99,,,0.39,Acu-Link.com,2013-09-11 18:07:00,
2013-09-11 14:22:00,72.3,71.7,29.99,East,90,1.7,-999.0,98,-99.99,,,0.43,Acu-Link.com,2013-09-11 18:22:00,
2013-09-11 14:37:00,73.6,73.0,30.00,ESE,112,0.0,-999.0,98,-99.99,,,0.43,Acu-Link.com,2013-09-11 18:37:00,
2013-09-11 14:53:00,73.2,72.6,29.98,West,270,2.2,-999.0,98,-99.99,,,0.44,Acu-Link.com,2013-09-11 18:53:00,
2013-09-11 15:08:00,75.0,74.4,29.98,West,270,0.0,-999.0,98,-99.99,,,0.44,Acu-Link.com,2013-09-11 19:08:00,
2013-09-11 15:23:00,75.0,74.4,29.97,NNE,22,0.0,-999.0,98,-99.99,,,0.44,Acu-Link.com,2013-09-11 19:23:00,
2013-09-11 15:38:00,77.0,76.4,29.97,East,90,1.1,-999.0,98,-99.99,,,0.44,Acu-Link.com,2013-09-11 19:38:00,
2013-09-11 15:54:00,78.4,77.8,29.96,NNW,337,2.2,-999.0,98,-99.99,,,0.44,Acu-Link.com,2013-09-11 19:54:00,
2013-09-11 16:09:00,78.4,77.8,29.95,NNW,337,0.0,-999.0,98,-99.99,,,0.44,Acu-Link.com,2013-09-11 20:09:00,
2013-09-11 16:24:00,79.9,79.3,29.95,NE,45,0.0,-999.0,98,-99.99,,,0.44,Acu-Link.com,2013-09-11 20:24:00,
2013-09-11 16:39:00,78.8,78.2,29.95,ENE,67,0.0,-999.0,98,-99.99,,,0.44,Acu-Link.com,2013-09-11 20:39:00,
2013-09-11 16:54:00,78.6,78.0,29.95,NE,45,0.0,-999.0,98,-99.99,,,0.44,Acu-Link.com,2013-09-11 20:54:00,
2013-09-11 17:10:00,78.1,77.5,29.95,NE,45,0.0,-999.0,98,-99.99,,,0.44,Acu-Link.com,2013-09-11 21:10:00,
2013-09-11 17:25:00,78.1,77.5,29.95,NNW,337,0.0,-999.0,98,-99.99,,,0.44,Acu-Link.com,2013-09-11 21:25:00,
2013-09-11 17:40:00,79.0,78.4,29.94,SSW,202,0.0,-999.0,98,-99.99,,,0.44,Acu-Link.com,2013-09-11 21:40:00,
2013-09-11 18:11:00,79.2,78.6,29.94,ESE,112,1.7,-999.0,98,-99.99,,,0.44,Acu-Link.com,2013-09-11 22:11:00,
2013-09-11 18:26:00,78.4,77.8,29.94,SW,225,0.0,-999.0,98,-99.99,,,0.44,Acu-Link.com,2013-09-11 22:26:00,
2013-09-11 18:41:00,78.8,78.2,29.94,South,180,0.0,-999.0,98,-99.99,,,0.44,Acu-Link.com,2013-09-11 22:41:00,
2013-09-11 18:56:00,77.4,76.8,29.95,NE,45,0.0,-999.0,98,-99.99,,,0.44,Acu-Link.com,2013-09-11 22:56:00,
2013-09-11 19:12:00,75.9,75.3,29.94,ESE,112,0.0,-999.0,98,-99.99,,,0.44,Acu-Link.com,2013-09-11 23:12:00,
2013-09-11 19:27:00,74.8,74.2,29.95,SE,135,0.0,-999.0,98,-99.99,,,0.44,Acu-Link.com,2013-09-11 23:27:00,
2013-09-11 19:42:00,73.8,73.2,29.94,North,0,0.0,-999.0,98,-99.99,,,0.44,Acu-Link.com,2013-09-11 23:42:00,
2013-09-11 19:57:00,72.1,71.5,29.95,ESE,112,0.0,-999.0,98,-99.99,,,0.44,Acu-Link.com,2013-09-11 23:57:00,
2013-09-11 20:13:00,71.6,71.0,29.95,NNE,22,0.0,-999.0,98,-99.99,,,0.44,Acu-Link.com,2013-09-12 00:13:00,
2013-09-11 20:28:00,70.9,70.3,29.95,East,90,0.0,-999.0,98,-99.99,,,0.44,Acu-Link.com,2013-09-12 00:28:00,
2013-09-11 20:43:00,70.3,69.7,29.95,ESE,112,0.0,-999.0,98,-99.99,,,0.44,Acu-Link.com,2013-09-12 00:43:00,
2013-09-11 20:58:00,70.2,69.6,29.95,West,270,0.0,-999.0,98,-99.99,,,0.44,Acu-Link.com,2013-09-12 00:58:00,
2013-09-11 21:14:00,69.6,69.0,29.96,East,90,0.0,-999.0,98,-99.99,,,0.44,Acu-Link.com,2013-09-12 01:14:00,
2013-09-11 21:29:00,69.4,68.8,29.95,SSE,157,0.0,-999.0,98,-99.99,,,0.44,Acu-Link.com,2013-09-12 01:29:00,
2013-09-11 21:44:00,69.1,68.5,29.95,SW,225,0.0,-999.0,98,-99.99,,,0.44,Acu-Link.com,2013-09-12 01:44:00,
2013-09-11 21:59:00,68.9,68.3,29.95,ESE,112,0.0,-999.0,98,-99.99,,,0.44,Acu-Link.com,2013-09-12 01:59:00,
2013-09-11 22:14:00,68.9,68.3,29.95,NE,45,0.0,-999.0,98,-99.99,,,0.44,Acu-Link.com,2013-09-12 02:14:00,
2013-09-11 22:30:00,68.7,68.1,29.94,East,90,0.0,-999.0,98,-99.99,,,0.44,Acu-Link.com,2013-09-12 02:30:00,
2013-09-11 22:45:00,68.9,68.3,29.94,SE,135,0.0,-999.0,98,-99.99,,,0.44,Acu-Link.com,2013-09-12 02:45:00,
2013-09-11 23:01:00,68.7,68.1,29.94,SSE,157,0.0,-999.0,98,-99.99,,,0.44,Acu-Link.com,2013-09-12 03:01:00,
2013-09-11 23:17:00,68.7,68.1,29.94,SSE,157,0.0,-999.0,98,-99.99,,,0.44,Acu-Link.com,2013-09-12 03:17:00,
2013-09-11 23:32:00,68.9,68.3,29.94,SSE,157,2.7,-999.0,98,-99.99,,,0.44,Acu-Link.com,2013-09-12 03:32:00,